Regional Weather Roundup
Issued by NWS Newport/Morehead, NC

Current Version | Previous Version | Graphics & Text | Print | Product List | Glossary On
Versions: 1 2 3 4 5 6 7 8 9 10 11 12 13 14 15 16 17 18 19 20 21 22 23 24 25 26 27 28 29 30 31 32 33 34 35 36 37 38 39 40 41 42 43 44 45 46 47 48 49 50
000 ASUS42 KMHX 260213 RWRMHX WEATHER ROUNDUP FOR EASTERN NORTH CAROLINA NATIONAL WEATHER SERVICE NEWPORT/MOREHEAD CITY NC 1000 PM EDT MON MAY 25 2015 NOTE: "FAIR" INDICATES FEW OR NO CLOUDS BELOW 12,000 FEET WITH NO SIGNIFICANT WEATHER AND/OR OBSTRUCTIONS TO VISIBILITY NCZ015>017-031-032-045>047-102-103-260300- NORTH COAST CITY SKY/WX TMP DP RH WIND PRES REMARKS EDENTON CLEAR 71 62 74 S9G16 30.31R ELIZABETH CITY CLEAR 70 60 70 S8 30.31R KITTY HAWK CLEAR 72 61 70 S6 30.31S MANTEO CLEAR 73 63 70 SW13 30.33R $$ NCZ045>047-081-094-103-104-260300- CENTRAL COAST CITY SKY/WX TMP DP RH WIND PRES REMARKS FRISCO PTCLDY 73 61 65 S12 30.33R SWANQUARTER N/A 73 N/A N/A S14 30.30S $$ NCZ095-097-098-100-101-260300- SOUTHERN COAST CITY SKY/WX TMP DP RH WIND PRES REMARKS BEAUFORT PTCLDY 71 63 75 S3 30.32R CEDAR ISLAND N/A 70 N/A N/A SE5 30.36S JACKSONVILLE CLEAR 69 61 75 S5 30.30R PINEY ISLAND CLEAR N/A N/A N/A S3 30.32R WILMINGTON CLEAR 71 63 75 SE3 30.30R $$ NCZ011>013-027>030-043-044-078>080-089-090>093-098-260300- COASTAL PLAIN CITY SKY/WX TMP DP RH WIND PRES REMARKS AHOSKIE CLEAR 67 60 78 S5 30.29R CLINTON CLEAR 71 63 76 CALM 30.30R ELIZABETHTOWN CLEAR 71 62 73 CALM 30.29R GOLDSBORO CLEAR 71 61 70 VRB1 30.28R GREENVILLE CLEAR 72 61 68 S8 30.30R HAVELOCK CLEAR 67 60 78 SE3 30.33R KENANSVILLE CLEAR 69 60 73 CALM 30.31R KINSTON NOT AVBL NEW BERN CLEAR 68 60 75 S3 30.33R RICHLANDS CLEAR 66 57 72 CALM 30.31S ROCKY MOUNT CLEAR 72 60 66 S6 30.29R WASHINGTON CLEAR 70 60 70 S6 30.31R WHITEVILLE CLEAR 71 64 78 CALM 30.29R $$ AMZ130-135-150-152-154-156-158-170-250-252-270-ANZ085-086-088-633-658-670-260300- MARINE OBSERVATIONS STATION/POSITION TIME TEMP WIND PRES WAVE SWELL AIR SEA DIR/SP/G HT/PER HT/PER (UTC) (F) (DEG/KT/KT) (MB) (FT/S) (FT/S) CHESAPEAKE LIGHT 0100 68 170/ 22/ 24 1025.5 64 E VA BEACH 0150 67 64 160/ 8/ 10 1026.5 1/ 8 2/ 8 DUCK 0100 72 65 170/ 13/ 17 1025.0 2 E DUCK 0111 65 N/A 1/ 7 OREGON INLET 0100 73 77 180/ 10/ 12 1026.5 13E OREGON INLT 0200 69 N/A 1/ 8 HATTERAS CG 0100 74 76 160/ 11/ 14 1026.3 DIAMOND BUOY 0150 74 76 170/ 14/ 16 1027.0 2/ 7 2/ 7 CAPE LOOKOUT 0200 74 150/ 13/ 14 1026.4 BEAUFORT LAB 0100 74 76 170/ 7/ 9 1025.5 27 SE WRIGHTSVLE 0100 72 77 160/ 10/ 12 N/A 5 SE WRIGHTSVLE 0108 75 77 170/ 10/ 14 1025.9 225 S CAPE HAT 0150 74 74 130/ 16/ 19 1026.5 3/ 7 2/11 41 SE CHARLESTON 0150 75 75 100/ 12/ 16 1024.3 4/ 7 2/ 7 $$

USA.gov is the U.S. government's official web portal to all federal, state and local government web resources and services.